User: anonymous   Login
Location: Gouy
(50.0008°N, 3.2556°E)
Time: 23:15:12
(UTC+00:00)
Language:

Geosat - Orbit

View from above orbital plane
View from above orbital plane
View from above satellite
View from above satellite

Ground track
Ground track

The orbit data is extracted from the following two-line orbital elements,

1 15595U 85021A   24204.64210895  .00000554  00000-0  22269-3 0  9996
2 15595 108.0583  76.1813 0001849 254.2340 105.8598 14.39066451 62812
Epoch (UTC): 22 July 2024 15:24:38
Eccentricity: 0.0001849
inclination: 108.0583°
perigee height: 760 km
apogee height: 763 km
right ascension of ascending node: 76.1813°
argument of perigee: 254.2340°
revolutions per day: 14.39066451
mean anomaly at epoch: 105.8598°
orbit number at epoch: 6281

The dashed part of the orbit path shows where the satellite is in the earth's shadow,  

DLR